Terminal Aerodrome Forecast
Issued by NWS

Home | Current Version | Previous Version | Text Only | Print | Product List | Glossary On
Versions: 1 2 3 4 5 6 7 8 9 10 11 12 13 14 15 16 17 18 19 20 21 22 23 24 25 26 27 28 29 30 31 32 33 34 35 36 37 38 39 40 41 42 43 44 45 46 47 48 49 50
000
FTUS46 KEKA 172343
TAFACV
TAF
KACV 172343Z 1800/1824 27006KT 6SM -RA VCTS SCT050CB BKN100
      TEMPO 1800/1802 3SM BR
     FM180200 VRB05KT 3SM -SHRA BR SCT007 OVC015
     FM180600 VRB04KT 3SM BR VCSH SCT004 OVC007
     FM181200 VRB03KT 2SM -DZ BR OVC004
     FM181800 29005KT 5SM BR VCSH OVC007=

USA.gov is the U.S. government's official web portal to all federal, state and local government web resources and services.